CW2732 Weather Reports


time (UTC)temp
C
wind
direction
speed
KPH
gust
KPH
rain 1hr
cm
rain 24hr
cm
rain mn
cm
humidity
%
barometer
mb
20260508111340 17 350 0.0 8.0 0.00 6.30 0.00 83 1014.5
20260508110329 17 213 1.6 8.0 0.00 6.30 0.00 85 1014.8
20260508105339 17 233 0.0 6.4 0.00 6.30 0.00 85 1014.8
20260508104359 16 195 3.2 6.4 0.00 6.30 0.00 85 1014.8
20260508103357 16 177 1.6 6.4 0.00 6.30 0.00 85 1014.8
20260508102356 16 192 3.2 6.4 0.00 6.30 0.00 86 1014.7
20260508101355 16 175 1.6 6.4 0.00 6.30 0.00 85 1014.4
20260508100412 16 258 0.0 6.4 0.00 6.30 0.00 85 1014.2
20260508095333 15 131 0.0 6.4 0.00 6.30 0.00 84 1014.2
20260508094356 15 134 3.2 6.4 0.00 6.30 0.00 83 1014.4
20260508093341 16 226 0.0 6.4 0.00 6.30 0.00 84 1014.8
20260508092340 16 219 0.0 4.8 0.00 6.30 0.00 84 1015.1
20260508091400 16 290 1.6 4.8 0.00 6.30 0.00 84 1014.7
20260508090350 16 230 0.0 3.2 0.00 6.30 0.00 82 1014.4
20260508085341 16 95 1.6 4.8 0.00 6.30 0.00 80 1014.1
20260508084340 16 148 1.6 4.8 0.00 6.30 0.00 77 1014.2
20260508083355 16 307 0.0 8.0 0.00 6.30 0.00 75 1014.3
20260508082353 16 307 0.0 8.0 0.00 6.30 0.00 75 1014.0
20260508081340 16 307 0.0 8.0 0.00 6.30 0.00 75 1014.0
20260508080339 16 84 0.0 8.0 0.00 6.30 0.00 75 1013.7
20260508075333 17 273 0.0 8.0 0.00 6.30 0.00 74 1013.8
20260508074339 17 271 0.0 8.0 0.00 6.30 0.00 73 1013.7
20260508073338 17 17 0.0 8.0 0.00 6.30 0.00 72 1013.6
20260508072336 17 326 0.0 8.0 0.00 6.30 0.00 72 1013.7
20260508071337 17 134 0.0 8.0 0.00 6.30 0.00 73 1013.5
20260508070337 16 299 1.6 8.0 0.00 6.30 0.00 75 1013.4
20260508065329 16 269 0.0 8.0 0.00 6.30 0.00 77 1013.3
20260508064407 15 226 1.6 8.0 0.00 6.30 0.00 79 1013.3
20260508063404 15 253 0.0 8.0 0.00 6.30 0.00 80 1013.2
20260508062337 14 342 0.0 8.0 0.00 6.30 0.00 80 1013.0
20260508061347 14 202 1.6 8.0 0.00 6.30 0.00 80 1012.9
20260508060401 14 346 3.2 12.9 0.00 6.30 0.00 81 1012.6
20260508055334 13 336 3.2 12.9 0.00 6.30 0.00 82 1012.5
20260508054354 13 329 3.2 8.0 0.00 6.30 0.00 82 1012.7
20260508053415 13 317 1.6 4.8 0.00 6.30 0.00 83 1012.7
20260508052343 13 322 1.6 6.4 0.00 6.30 0.00 83 1012.8
20260508051342 13 305 1.6 6.4 0.00 6.30 0.00 83 1012.6
20260508050334 13 290 0.0 3.2 0.00 6.30 0.00 83 1012.5
20260508045413 13 281 0.0 1.6 0.00 6.30 0.00 83 1012.5
20260508044401 13 250 0.0 4.8 0.00 6.30 0.00 82 1012.2
20260508043338 13 267 1.6 4.8 0.00 6.30 0.00 82 1012.4
20260508042336 13 253 1.6 3.2 0.00 6.30 0.00 82 1012.4
20260508041334 13 340 1.6 11.3 0.00 6.30 0.00 81 1012.3
20260508040341 13 305 1.6 4.8 0.00 6.30 0.00 82 1012.0
20260508035334 13 284 1.6 9.7 0.00 6.30 0.00 82 1011.8
20260508034332 13 355 1.6 6.4 0.00 6.30 0.00 82 1011.8
20260508033334 13 327 1.6 12.9 0.00 6.30 0.00 82 1011.7
20260508032332 13 355 1.6 6.4 0.00 6.30 0.00 83 1012.1
20260508031352 13 310 0.0 6.4 0.00 6.30 0.00 83 1012.4
20260508030342 13 336 0.0 3.2 0.00 6.30 0.00 83 1012.5
20260508025334 13 18 1.6 9.7 0.00 6.30 0.00 83 1012.5
20260508024334 13 38 1.6 8.0 0.00 6.30 0.00 83 1012.4
20260508023344 13 126 0.0 8.0 0.00 6.30 0.00 83 1012.5
20260508022341 13 355 1.6 8.0 0.00 6.30 0.00 83 1012.5
20260508021332 13 334 3.2 9.7 0.00 6.30 0.00 83 1012.5
20260508020408 13 333 3.2 9.7 0.00 6.30 0.00 83 1012.7
20260508015359 13 275 1.6 8.0 0.00 6.30 0.00 83 1012.7
20260508014335 13 280 1.6 8.0 0.00 6.30 0.00 84 1012.7
20260508013355 13 314 3.2 11.3 0.00 6.30 0.00 84 1012.7
20260508012412 13 321 1.6 8.0 0.00 6.30 0.00 84 1012.8
20260508011339 13 355 1.6 12.9 0.00 6.30 0.00 85 1013.0
20260508010339 13 336 3.2 8.0 0.00 6.30 0.00 85 1013.2
20260508005352 13 282 0.0 6.4 0.00 6.30 0.00 86 1013.3
20260508004358 13 331 0.0 0.0 0.00 6.30 0.00 87 1013.6
20260508003338 13 317 0.0 3.2 0.00 6.30 0.00 87 1013.8
20260508002356 13 325 0.0 4.8 0.00 6.30 0.00 87 1013.7
20260508001341 13 355 0.0 1.6 0.00 6.30 0.00 87 1013.9
20260508000342 13 310 0.0 1.6 0.00 6.30 0.00 88 1013.9
20260507235356 13 311 0.0 4.8 0.00 6.30 0.00 88 1013.9
20260507234354 13 338 0.0 0.0 0.00 6.30 0.00 88 1014.1
20260507233342 13 299 0.0 0.0 0.00 6.30 0.00 88 1014.3
20260507232332 14 222 0.0 0.0 0.00 6.30 0.00 88 1014.3
20260507231333 14 249 0.0 1.6 0.00 6.30 0.00 88 1014.3
20260507230334 14 220 0.0 6.4 0.00 6.30 0.00 88 1014.2
20260507225406 14 273 0.0 4.8 0.00 6.30 0.00 88 1014.2
20260507224342 14 283 0.0 1.6 0.00 6.30 0.00 88 1014.3
20260507223334 14 294 0.0 4.8 0.00 6.30 0.00 88 1014.2
20260507222334 15 309 0.0 8.0 0.00 6.30 0.00 88 1014.1
20260507221351 15 261 0.0 0.0 0.00 6.30 0.00 89 1013.9
20260507220340 15 279 0.0 0.0 0.00 6.30 0.00 89 1013.9
20260507215333 15 302 0.0 0.0 0.00 6.30 1.27 89 1013.8
20260507214337 15 277 0.0 0.0 0.00 6.30 1.27 89 1013.8
20260507213336 15 298 0.0 0.0 0.00 6.30 1.27 89 1013.9
20260507212334 15 307 0.0 3.2 0.00 6.30 1.27 88 1013.9
20260507211331 15 302 0.0 3.2 0.00 6.30 1.27 88 1013.8
20260507210339 15 299 0.0 1.6 0.00 6.30 1.27 88 1013.9
20260507205334 15 299 0.0 1.6 0.00 6.30 1.27 88 1013.8
20260507204334 15 300 0.0 1.6 0.00 6.30 1.27 88 1013.8
20260507203341 15 290 0.0 3.2 0.00 6.30 1.27 88 1013.9
20260507202333 15 14 0.0 3.2 0.00 6.30 1.27 88 1013.9
20260507201350 15 34 0.0 1.6 0.00 6.30 1.27 88 1013.7
20260507200341 15 34 0.0 3.2 0.00 6.30 1.27 88 1013.7
20260507195332 15 342 0.0 1.6 0.00 6.30 1.27 88 1013.6
20260507194353 15 360 0.0 6.4 0.00 6.30 1.27 88 1013.4
20260507193340 15 45 3.2 9.7 0.00 6.30 1.27 88 1013.3
20260507192338 15 63 3.2 6.4 0.00 6.30 1.27 87 1013.1
20260507191358 15 20 1.6 4.8 0.00 6.30 1.27 87 1012.9
20260507190349 15 64 3.2 12.9 0.10 6.30 1.27 87 1012.8
20260507185355 15 355 8.0 12.9 0.20 6.30 1.27 87 1012.5
20260507184333 15 32 3.2 14.5 0.61 6.30 1.27 88 1012.5
20260507183338 15 360 6.4 14.5 0.79 6.30 1.27 89 1012.5
20260507182356 15 49 3.2 9.7 1.19 6.30 1.27 89 1012.1
20260507181336 15 9 1.6 9.7 1.91 6.30 1.27 90 1012.1
20260507180357 15 30 0.0 6.4 3.61 6.20 1.24 89 1012.1
20260507175341 15 11 3.2 9.7 4.29 6.10 1.22 89 1012.2
20260507174341 15 48 1.6 6.4 4.29 5.69 1.14 89 1012.2
20260507173334 15 360 0.0 6.4 4.80 5.41 1.09 89 1012.2
20260507172342 15 20 0.0 4.8 5.11 5.11 1.02 89 1012.2
20260507171344 16 235 0.0 4.8 4.29 4.29 0.86 89 1012.2
20260507170330 16 290 4.8 11.3 2.39 2.39 0.48 88 1012.2
20260507165345 16 202 4.8 8.0 1.80 1.80 0.36 88 1012.1
20260507164346 16 182 4.8 14.5 1.40 1.40 0.28 86 1011.6
20260507163337 17 86 8.0 19.3 0.61 0.61 0.13 83 1011.3
20260507162338 17 71 6.4 14.5 0.00 0.00 0.00 81 1011.1
20260507161357 18 107 9.7 25.7 0.00 0.00 0.00 79 1011.2
20260507160341 18 94 8.0 12.9 0.00 0.00 0.00 76 1011.2
20260507155348 19 107 8.0 27.4 0.00 0.00 0.00 76 1011.0
20260507154406 19 88 8.0 27.4 0.00 0.00 0.00 75 1011.1
20260507153336 19 88 6.4 27.4 0.00 0.00 0.00 75 1011.0
20260507152335 18 95 4.8 27.4 0.00 0.00 0.00 76 1011.1
20260507151354 18 74 3.2 27.4 0.00 0.00 0.00 78 1011.2
20260507150343 18 59 3.2 27.4 0.00 0.00 0.00 78 1011.1
20260507145355 19 120 4.8 27.4 0.00 0.00 0.00 76 1011.1
20260507144333 19 78 6.4 27.4 0.00 0.00 0.00 72 1011.1
20260507143346 20 90 6.4 27.4 0.00 0.00 0.00 67 1011.0
20260507142335 20 5 8.0 27.4 0.00 0.00 0.00 66 1010.9
20260507141354 20 97 9.7 27.4 0.00 0.00 0.00 66 1010.9
20260507140353 20 123 11.3 27.4 0.00 0.00 0.00 68 1010.9
20260507135335 20 71 9.7 27.4 0.00 0.00 0.00 67 1011.1
20260507134354 20 81 12.9 27.4 0.00 0.00 0.00 65 1011.2
20260507133332 20 62 12.9 27.4 0.00 0.00 0.00 64 1011.1
20260507132349 20 128 12.9 27.4 0.00 0.00 0.00 61 1011.2
20260507131339 21 130 8.0 27.4 0.00 0.00 0.00 60 1011.2
20260507130353 21 90 14.5 27.4 0.00 0.00 0.00 60 1011.4
20260507125336 21 66 16.1 27.4 0.00 0.00 0.00 59 1011.7
20260507124337 22 56 14.5 27.4 0.00 0.00 0.00 55 1011.6
20260507123335 22 44 11.3 27.4 0.00 0.00 0.00 59 1011.6
20260507122356 21 117 12.9 27.4 0.00 0.00 0.00 59 1011.7
20260507121345 21 88 12.9 27.4 0.00 0.00 0.00 59 1011.8
20260507120404 21 61 9.7 27.4 0.00 0.00 0.00 59 1012.0
20260507115333 21 73 14.5 27.4 0.00 0.00 0.00 59 1012.0
20260507114339 21 78 12.9 27.4 0.00 0.00 0.00 60 1012.0
20260507113356 20 90 9.7 27.4 0.00 0.00 0.00 62 1011.9
20260507112333 21 71 12.9 27.4 0.00 0.00 0.00 61 1012.1